"startDT [UTC]","vpos","CH4 [ppm]","stdev(CH4) [ppm]","CO2 [ppm]","stdev(CO2) [ppm]","H2O [ppm]","stdev(H2O)","p_LGR [torr]","T_LGR [C]","mt1_LGR [us]","mt2_LGR [us]","T_ECpre [C]","T_EC1 [C]","T_EC2 [C]","p_inlet [hPa]","p_in [hPa]","p_out [hPa]","T_inlet [C]","RH_inlet [%]","dwpt_inlet [C]","T_vent [C]","RH_vent [%]","dwpt_vent [C]","flow_vent [l min-1]","flow_inlet [l min-1]","dwpt_sample [C]","T_room [C]"
2012-01-02 00:00:00,0.0,1.9223,0.0010,404.38,0.20,77.2,36.4,138.14,28.17,24.60,36.30,0.04,-272.74,-272.74,-48,554,-928,23.1,3.4,-22.9,23.1,3.5,-22.6,5.73,2.42,-25.8,27.1
2012-01-02 00:01:00,0.0,1.9226,0.0009,404.46,0.20,68.2,29.9,138.14,28.15,24.59,36.29,0.04,-272.74,-272.74,-48,554,-928,23.1,3.4,-22.9,23.1,3.5,-22.6,5.73,2.42,-25.9,27.0
2012-01-02 00:02:00,0.0,1.9222,0.0009,404.43,0.19,77.0,32.9,138.14,28.14,24.59,36.30,0.04,-272.74,-272.74,-48,554,-927,23.1,3.4,-22.9,23.0,3.5,-22.6,5.73,2.41,-25.9,27.0
2012-01-02 00:03:00,0.0,1.9220,0.0008,404.44,0.20,75.1,31.1,138.14,28.12,24.59,36.29,0.04,-272.74,-272.74,-48,555,-928,23.1,3.4,-22.9,23.0,3.5,-22.6,5.73,2.40,-25.9,27.0
2012-01-02 00:04:00,0.0,1.9214,0.0008,404.51,0.19,72.6,34.8,138.14,28.11,24.59,36.29,0.04,-272.74,-272.74,-48,554,-928,23.1,3.4,-22.9,23.0,3.5,-22.7,5.73,2.38,-26.0,26.9
2012-01-02 00:05:00,0.0,1.9212,0.0008,404.40,0.23,71.0,34.9,138.14,28.10,24.59,36.30,0.04,-272.74,-272.74,-48,554,-928,23.0,3.4,-22.9,23.0,3.5,-22.7,5.73,2.36,-26.0,26.9
2012-01-02 00:06:00,0.0,1.9211,0.0011,404.40,0.19,61.7,35.2,138.15,28.08,24.59,36.29,0.04,-272.74,-272.74,-48,554,-927,23.0,3.4,-23.0,22.9,3.5,-22.8,5.73,2.35,-26.0,26.9
2012-01-02 00:07:00,0.0,1.9210,0.0010,404.40,0.18,65.7,34.7,138.15,28.07,24.59,36.29,0.04,-272.74,-272.74,-48,554,-927,23.0,3.4,-23.0,22.9,3.5,-22.8,5.73,2.33,-26.0,26.9
2012-01-02 00:08:00,0.0,1.9214,0.0008,404.39,0.30,68.2,30.5,138.14,28.06,24.59,36.29,0.04,-272.74,-272.74,-48,554,-927,23.0,3.4,-22.9,22.9,3.5,-22.7,5.73,2.32,-26.0,27.1
2012-01-02 00:09:00,0.0,1.9221,0.0010,404.37,0.25,68.9,33.9,138.14,28.06,24.59,36.29,0.04,-272.74,-272.73,-47,554,-927,23.0,3.4,-22.9,23.0,3.5,-22.7,5.73,2.49,-25.9,27.4
2012-01-02 00:10:00,0.0,1.9218,0.0010,404.28,0.19,94.0,33.0,138.13,28.06,24.59,36.30,0.04,-272.74,-272.74,-48,553,-927,23.1,3.4,-22.9,23.0,3.5,-22.6,5.73,2.35,-25.8,27.6
2012-01-02 00:11:00,0.0,1.9231,0.0008,404.24,0.21,97.7,34.6,138.12,28.07,24.58,36.29,0.04,-272.74,-272.74,-48,553,-927,23.1,3.5,-22.9,23.1,3.5,-22.6,5.73,2.33,-25.7,27.7
2012-01-02 00:12:00,0.0,1.9227,0.0010,404.18,0.21,114.9,35.2,138.12,28.09,24.59,36.30,0.04,-272.73,-272.74,-47,553,-927,23.1,3.5,-22.8,23.1,3.5,-22.6,5.73,2.47,-25.6,27.8
2012-01-02 00:13:00,0.0,1.9225,0.0009,404.20,0.20,116.4,33.1,138.11,28.11,24.59,36.30,0.04,-272.74,-272.74,-48,553,-927,23.2,3.4,-22.8,23.2,3.5,-22.5,5.73,2.27,-25.5,27.9
2012-01-02 00:14:00,0.0,1.9227,0.0008,404.16,0.20,152.3,30.4,138.11,28.13,24.59,36.30,0.04,-272.74,-272.74,-47,554,-927,23.2,3.4,-22.8,23.2,3.5,-22.5,5.73,2.49,-25.4,28.0
2012-01-02 00:15:00,0.0,1.9226,0.0010,404.10,0.18,145.8,34.8,138.10,28.15,24.59,36.31,0.04,-272.74,-272.74,-48,553,-927,23.3,3.4,-22.8,23.2,3.5,-22.5,5.73,2.26,-25.3,28.1
2012-01-02 00:16:00,0.0,1.9230,0.0010,404.20,0.21,163.2,27.9,138.10,28.18,24.59,36.30,0.04,-272.74,-272.74,-48,553,-927,23.3,3.4,-22.8,23.3,3.5,-22.4,5.73,2.49,-25.2,28.2
2012-01-02 00:17:00,0.0,1.9233,0.0009,404.25,0.21,175.4,31.3,138.10,28.20,24.59,36.30,0.04,-272.74,-272.74,-47,554,-927,23.3,3.4,-22.7,23.3,3.5,-22.4,5.73,2.27,-25.1,28.2
2012-01-02 00:18:00,0.0,1.9237,0.0009,404.19,0.21,180.1,29.0,138.10,28.23,24.59,36.32,0.04,-272.74,-272.74,-48,553,-927,23.4,3.4,-22.8,23.4,3.5,-22.4,5.73,2.43,-25.0,28.0
2012-01-02 00:19:00,0.0,1.9230,0.0009,404.26,0.19,181.7,32.4,138.10,28.25,24.60,36.31,0.04,-272.74,-272.74,-48,554,-927,23.4,3.4,-22.7,23.4,3.5,-22.4,5.73,2.46,-25.1,27.9
2012-01-02 00:20:00,0.0,1.9233,0.0009,404.24,0.23,159.6,36.1,138.10,28.26,24.60,36.31,0.04,-272.74,-272.74,-47,554,-927,23.4,3.4,-22.8,23.4,3.5,-22.4,5.73,2.37,-25.2,27.7
2012-01-02 00:21:00,0.0,1.9232,0.0010,404.26,0.17,157.4,36.2,138.11,28.27,24.60,36.31,0.04,-272.74,-272.74,-48,555,-928,23.4,3.4,-22.7,23.4,3.5,-22.4,5.73,2.33,-25.3,27.7
2012-01-02 00:22:00,0.0,1.9230,0.0011,404.23,0.19,148.0,30.4,138.11,28.27,24.60,36.32,0.04,-272.74,-272.74,-48,554,-927,23.4,3.4,-22.7,23.4,3.5,-22.4,5.73,2.33,-25.3,27.6
2012-01-02 00:23:00,0.0,1.9232,0.0009,404.30,0.21,134.6,31.4,138.12,28.27,24.60,36.31,0.04,-272.74,-272.74,-48,555,-928,23.4,3.4,-22.7,23.3,3.5,-22.4,5.73,2.36,-25.4,27.5
2012-01-02 00:24:00,0.0,1.9232,0.0009,404.33,0.16,130.8,33.8,138.12,28.26,24.60,36.31,0.04,-272.74,-272.74,-48,555,-928,23.3,3.4,-22.7,23.3,3.5,-22.5,5.73,2.38,-25.5,27.4
2012-01-02 00:25:00,0.0,1.9231,0.0008,404.29,0.22,123.3,30.2,138.12,28.26,24.60,36.31,0.04,-272.74,-272.74,-48,555,-928,23.3,3.4,-22.8,23.3,3.5,-22.5,5.73,2.41,-25.6,27.4
2012-01-02 00:26:00,0.0,1.9232,0.0009,404.29,0.18,118.4,35.7,138.13,28.25,24.60,36.31,0.04,-272.74,-272.74,-48,555,-928,23.3,3.4,-22.8,23.2,3.5,-22.5,5.73,2.42,-25.6,27.4
2012-01-02 00:27:00,0.0,1.9237,0.0008,404.34,0.22,98.3,35.2,138.13,28.23,24.59,36.30,0.04,-272.74,-272.74,-48,555,-928,23.3,3.4,-22.8,23.2,3.5,-22.5,5.73,2.43,-25.6,27.4
2012-01-02 00:28:00,0.0,1.9231,0.0009,404.30,0.18,97.3,31.1,138.13,28.22,24.60,36.30,0.04,-272.74,-272.74,-48,555,-928,23.3,3.4,-22.8,23.2,3.6,-22.4,5.73,2.41,-25.6,27.3
2012-01-02 00:29:00,0.0,1.9231,0.0009,404.40,0.21,89.7,33.1,138.13,28.21,24.60,36.30,0.04,-272.74,-272.74,-48,555,-928,23.3,3.4,-22.8,23.2,3.6,-22.4,5.73,2.40,-25.7,27.2
2012-01-02 00:30:00,0.0,1.9232,0.0009,404.38,0.20,92.3,36.6,138.13,28.20,24.60,36.30,0.04,-272.74,-272.74,-48,555,-928,23.3,3.4,-22.8,23.1,3.6,-22.5,5.73,2.37,-25.7,27.2
2012-01-02 00:31:00,0.0,1.9229,0.0009,404.34,0.19,85.5,35.6,138.14,28.19,24.60,36.30,0.04,-272.74,-272.74,-48,555,-928,23.2,3.5,-22.7,23.1,3.6,-22.5,5.73,2.35,-25.8,27.1
2012-01-02 00:32:00,0.0,1.9235,0.0009,404.40,0.18,81.2,30.2,138.14,28.17,24.59,36.30,0.04,-272.74,-272.74,-48,555,-928,23.2,3.4,-22.8,23.1,3.6,-22.5,5.73,2.34,-25.8,27.1
2012-01-02 00:33:00,0.0,1.9229,0.0009,404.48,0.20,82.2,30.9,138.14,28.16,24.59,36.29,0.04,-272.74,-272.74,-48,555,-928,23.2,3.5,-22.8,23.1,3.6,-22.5,5.73,2.34,-25.8,27.0
2012-01-02 00:34:00,0.0,1.9220,0.0007,404.37,0.21,73.5,32.6,138.14,28.15,24.60,36.30,0.04,-272.74,-272.74,-48,554,-928,23.1,3.4,-22.9,23.0,3.5,-22.6,5.73,2.35,-25.9,27.0
2012-01-02 00:35:00,0.0,1.9223,0.0009,404.48,0.20,66.6,34.4,138.14,28.13,24.59,36.29,0.04,-272.74,-272.74,-48,554,-928,23.1,3.4,-22.9,23.0,3.5,-22.6,5.73,2.37,-25.9,27.0
2012-01-02 00:36:00,0.0,1.9221,0.0009,404.48,0.20,70.7,33.4,138.14,28.12,24.59,36.29,0.04,-272.73,-272.74,-48,554,-927,23.1,3.4,-22.9,23.0,3.5,-22.6,5.73,2.39,-25.9,27.0
2012-01-02 00:37:00,0.0,1.9220,0.0007,404.41,0.21,75.3,32.9,138.14,28.11,24.59,36.29,0.04,-272.74,-272.75,-48,554,-927,23.1,3.4,-22.9,23.0,3.5,-22.6,5.73,2.41,-26.0,27.0
2012-01-02 00:38:00,0.0,1.9220,0.0010,404.42,0.19,67.4,31.5,138.14,28.10,24.59,36.29,0.04,-272.74,-272.74,-48,554,-928,23.1,3.5,-22.9,23.0,3.5,-22.7,5.73,2.41,-26.0,26.9
2012-01-02 00:39:00,0.0,1.9218,0.0009,404.54,0.18,64.2,33.9,138.14,28.08,24.59,36.29,0.04,-272.74,-272.74,-48,554,-927,23.0,3.4,-22.9,22.9,3.5,-22.7,5.73,2.42,-26.0,26.8
2012-01-02 00:40:00,0.0,1.9218,0.0008,404.43,0.17,58.9,34.0,138.14,28.07,24.59,36.30,0.04,-272.74,-272.74,-48,554,-927,23.0,3.4,-23.0,22.9,3.5,-22.8,5.73,2.41,-26.0,27.0
2012-01-02 00:41:00,0.0,1.9225,0.0008,404.49,0.20,73.0,31.1,138.14,28.06,24.59,36.29,0.04,-272.74,-272.74,-48,554,-927,23.0,3.4,-23.0,22.9,3.5,-22.7,5.73,2.29,-25.9,27.3
2012-01-02 00:42:00,0.0,1.9227,0.0008,404.43,0.23,87.3,37.4,138.13,28.06,24.59,36.29,0.04,-272.74,-272.74,-48,554,-927,23.0,3.5,-22.8,23.0,3.6,-22.6,5.73,2.36,-25.8,27.5
2012-01-02 00:43:00,0.0,1.9228,0.0010,404.32,0.14,96.4,32.7,138.13,28.07,24.59,36.29,0.04,-272.74,-272.74,-48,553,-927,23.1,3.5,-22.8,23.1,3.6,-22.5,5.73,2.47,-25.7,27.6
2012-01-02 00:44:00,0.0,1.9230,0.0008,404.26,0.21,109.4,31.3,138.12,28.08,24.59,36.29,0.04,-272.74,-272.74,-48,554,-927,23.1,3.4,-22.9,23.1,3.5,-22.6,5.73,2.26,-25.6,27.8
2012-01-02 00:45:00,0.0,1.9230,0.0009,404.26,0.23,120.5,31.5,138.11,28.10,24.59,36.30,0.04,-272.74,-272.74,-48,554,-927,23.2,3.4,-22.9,23.2,3.5,-22.6,5.73,2.50,-25.5,27.9
2012-01-02 00:46:00,0.0,1.9229,0.0009,404.21,0.19,127.8,33.7,138.11,28.12,24.59,36.30,0.04,-272.74,-272.74,-48,553,-927,23.2,3.4,-22.9,23.2,3.5,-22.7,5.73,2.27,-25.4,28.0
2012-01-02 00:47:00,0.0,1.9229,0.0009,404.27,0.21,143.9,33.1,138.11,28.15,24.59,36.30,0.04,-272.74,-272.74,-48,554,-927,23.3,3.4,-23.0,23.3,3.5,-22.7,5.73,2.48,-25.3,28.1
2012-01-02 00:48:00,0.0,1.9230,0.0008,404.25,0.19,157.6,32.3,138.10,28.17,24.59,36.31,0.04,-272.74,-272.74,-48,553,-927,23.3,3.4,-22.9,23.3,3.5,-22.6,5.73,2.28,-25.2,28.2
2012-01-02 00:49:00,0.0,1.9236,0.0008,404.36,0.20,166.3,31.9,138.10,28.20,24.59,36.30,0.04,-272.74,-272.74,-48,554,-927,23.3,3.4,-23.0,23.3,3.5,-22.7,5.73,2.48,-25.1,28.3
2012-01-02 00:50:00,0.0,1.9238,0.0009,404.37,0.21,176.3,33.6,138.10,28.23,24.59,36.31,0.04,-272.74,-272.74,-48,554,-927,23.4,3.4,-22.9,23.4,3.5,-22.6,5.73,2.30,-25.0,28.2
2012-01-02 00:51:00,0.0,1.9238,0.0007,404.35,0.19,178.9,30.7,138.10,28.25,24.59,36.31,0.04,-272.74,-272.74,-48,554,-927,23.4,3.3,-23.0,23.4,3.4,-22.7,5.73,2.36,-25.0,28.0
2012-01-02 00:52:00,0.0,1.9231,0.0009,404.28,0.18,158.6,29.2,138.10,28.26,24.60,36.31,0.04,-272.74,-272.74,-48,554,-928,23.5,3.3,-23.0,23.4,3.4,-22.7,5.73,2.46,-25.1,27.9
2012-01-02 00:53:00,0.0,1.9234,0.0010,404.36,0.19,159.5,35.7,138.11,28.27,24.59,36.31,0.04,-272.74,-272.74,-48,554,-928,23.5,3.3,-23.1,23.4,3.4,-22.8,5.73,2.43,-25.2,27.7
2012-01-02 00:54:00,0.0,1.9237,0.0009,404.39,0.21,154.8,31.7,138.11,28.27,24.59,36.31,0.04,-272.74,-272.74,-48,555,-928,23.4,3.3,-23.1,23.3,3.4,-22.9,5.73,2.38,-25.3,27.6
2012-01-02 00:55:00,0.0,1.9233,0.0008,404.33,0.24,138.6,29.6,138.12,28.27,24.60,36.31,0.04,-272.74,-272.74,-48,555,-928,23.4,3.3,-23.0,23.3,3.4,-22.8,5.73,2.35,-25.4,27.6
2012-01-02 00:56:00,0.0,1.9230,0.0009,404.32,0.20,132.9,36.5,138.12,28.27,24.60,36.31,0.04,-272.74,-272.74,-48,555,-928,23.4,3.3,-23.0,23.3,3.4,-22.8,5.73,2.34,-25.5,27.5
2012-01-02 00:57:00,0.0,1.9234,0.0009,404.45,0.20,122.4,27.9,138.12,28.26,24.60,36.30,0.04,-272.74,-272.74,-48,555,-928,23.3,3.3,-23.1,23.3,3.4,-22.8,5.73,2.34,-25.5,27.4
2012-01-02 00:58:00,0.0,1.9232,0.0009,404.44,0.21,112.5,32.1,138.12,28.25,24.60,36.30,0.04,-272.74,-272.74,-48,555,-928,23.3,3.4,-23.0,23.2,3.4,-22.8,5.73,2.36,-25.6,27.4
2012-01-02 00:59:00,0.0,1.9236,0.0009,404.36,0.17,107.1,33.8,138.13,28.24,24.60,36.31,0.04,-272.74,-272.74,-48,555,-928,23.3,3.4,-23.0,23.2,3.5,-22.8,5.73,2.39,-25.7,27.3
2012-01-02 01:00:00,0.0,1.9236,0.0008,404.37,0.21,95.9,36.8,138.13,28.23,24.60,36.31,0.04,-272.74,-272.74,-48,555,-928,23.3,3.4,-23.0,23.2,3.5,-22.7,5.73,2.41,-25.7,27.3
2012-01-02 01:01:00,0.0,1.9235,0.0010,404.34,0.18,86.3,32.2,138.13,28.22,24.60,36.31,0.04,-272.74,-272.74,-48,555,-928,23.3,3.4,-23.0,23.2,3.5,-22.6,5.73,2.43,-25.7,27.3
2012-01-02 01:02:00,0.0,1.9237,0.0009,404.42,0.18,87.0,34.8,138.13,28.21,24.59,36.30,0.04,-272.74,-272.74,-48,555,-928,23.2,3.4,-22.9,23.2,3.5,-22.6,5.73,2.43,-25.8,27.2
2012-01-02 01:03:00,0.0,1.9231,0.0008,404.45,0.21,79.0,34.1,138.14,28.19,24.60,36.30,0.04,-272.74,-272.74,-48,555,-928,23.2,3.4,-22.9,23.1,3.5,-22.6,5.73,2.41,-25.8,27.2
2012-01-02 01:04:00,0.0,1.9232,0.0009,404.51,0.21,85.7,32.2,138.14,28.18,24.59,36.30,0.04,-272.74,-272.74,-48,555,-928,23.2,3.4,-22.9,23.1,3.5,-22.6,5.73,2.39,-25.8,27.2
2012-01-02 01:05:00,0.0,1.9230,0.0010,404.52,0.15,80.8,33.8,138.14,28.17,24.59,36.30,0.04,-272.74,-272.74,-48,554,-928,23.2,3.4,-22.8,23.1,3.5,-22.6,5.73,2.36,-25.9,27.1
2012-01-02 01:06:00,0.0,1.9227,0.0009,404.48,0.18,67.1,30.0,138.14,28.15,24.60,36.30,0.04,-272.74,-272.74,-48,555,-928,23.1,3.4,-22.8,23.1,3.5,-22.6,5.73,2.34,-25.9,27.1
2012-01-02 01:07:00,0.0,1.9221,0.0009,404.56,0.21,64.0,32.0,138.14,28.14,24.60,36.29,0.04,-272.74,-272.74,-48,555,-928,23.1,3.4,-22.9,23.0,3.5,-22.7,5.73,2.34,-25.9,27.1
2012-01-02 01:08:00,0.0,1.9226,0.0009,404.58,0.19,65.4,34.3,138.14,28.12,24.59,36.29,0.04,-272.74,-272.74,-48,554,-928,23.1,3.4,-23.0,23.0,3.5,-22.7,5.73,2.34,-26.0,27.1
2012-01-02 01:09:00,0.0,1.9224,0.0009,404.55,0.21,73.8,36.5,138.14,28.11,24.59,36.29,0.04,-272.74,-272.74,-48,554,-928,23.1,3.4,-23.0,23.0,3.5,-22.7,5.73,2.36,-26.0,27.0
2012-01-02 01:10:00,0.0,1.9223,0.0010,404.56,0.19,59.2,36.8,138.14,28.10,24.59,36.29,0.04,-272.75,-272.74,-48,554,-928,23.1,3.4,-23.0,23.0,3.5,-22.8,5.73,2.39,-26.0,27.0
2012-01-02 01:11:00,0.0,1.9220,0.0009,404.55,0.18,60.2,34.8,138.14,28.08,24.59,36.29,0.04,-272.74,-272.74,-48,554,-928,23.0,3.4,-23.0,22.9,3.5,-22.8,5.73,2.41,-26.0,26.9
2012-01-02 01:12:00,0.0,1.9218,0.0009,404.62,0.19,79.2,30.2,138.14,28.07,24.59,36.29,0.04,-272.74,-272.74,-48,554,-928,23.0,3.4,-23.0,22.9,3.5,-22.8,5.73,2.43,-26.1,26.9
2012-01-02 01:13:00,0.0,1.9218,0.0008,404.57,0.23,65.6,36.1,138.14,28.06,24.59,36.29,0.04,-272.74,-272.74,-48,554,-927,23.0,3.4,-23.0,22.9,3.5,-22.8,5.73,2.44,-26.0,27.2
2012-01-02 01:14:00,0.0,1.9223,0.0011,404.49,0.23,74.8,32.9,138.14,28.05,24.59,36.29,0.04,-272.74,-272.74,-48,554,-927,23.0,3.4,-23.0,23.0,3.5,-22.8,5.73,2.28,-25.9,27.4
2012-01-02 01:15:00,0.0,1.9228,0.0011,404.45,0.19,86.2,27.8,138.13,28.06,24.59,36.29,0.04,-272.74,-272.74,-48,554,-927,23.0,3.4,-23.0,23.0,3.5,-22.7,5.73,2.40,-25.8,27.6
2012-01-02 01:16:00,0.0,1.9228,0.0010,404.39,0.22,99.3,31.2,138.12,28.07,24.59,36.30,0.04,-272.74,-272.74,-48,553,-927,23.1,3.4,-23.0,23.1,3.5,-22.7,5.73,2.43,-25.7,27.7
2012-01-02 01:17:00,0.0,1.9233,0.0009,404.32,0.18,103.9,34.7,138.12,28.08,24.59,36.30,0.04,-272.74,-272.74,-48,554,-927,23.1,3.4,-23.0,23.1,3.5,-22.7,5.73,2.28,-25.6,27.8
2012-01-02 01:18:00,0.0,1.9232,0.0007,404.25,0.19,122.9,33.7,138.11,28.10,24.59,36.30,0.04,-272.74,-272.74,-48,553,-927,23.2,3.4,-22.9,23.2,3.5,-22.6,5.73,2.49,-25.5,27.9
2012-01-02 01:19:00,0.0,1.9230,0.0009,404.27,0.22,135.1,32.5,138.11,28.12,24.59,36.31,0.04,-272.74,-272.74,-48,553,-927,23.2,3.4,-23.0,23.2,3.5,-22.6,5.73,2.26,-25.4,28.0
2012-01-02 01:20:00,0.0,1.9232,0.0010,404.43,0.21,149.2,30.9,138.10,28.15,24.59,36.30,0.04,-272.74,-272.74,-48,554,-927,23.3,3.4,-22.9,23.3,3.5,-22.7,5.73,2.49,-25.3,28.1
2012-01-02 01:21:00,0.0,1.9237,0.0010,404.38,0.20,159.6,38.7,138.10,28.17,24.59,36.30,0.04,-272.74,-272.74,-48,553,-927,23.3,3.4,-23.0,23.3,3.5,-22.6,5.73,2.27,-25.2,28.2
2012-01-02 01:22:00,0.0,1.9238,0.0007,404.40,0.24,175.7,33.1,138.10,28.20,24.59,36.31,0.04,-272.74,-272.74,-47,554,-927,23.3,3.4,-22.9,23.3,3.5,-22.6,5.73,2.49,-25.1,28.2
2012-01-02 01:23:00,0.0,1.9241,0.0010,404.49,0.21,172.2,35.5,138.10,28.23,24.60,36.30,0.04,-272.74,-272.74,-48,554,-927,23.4,3.4,-23.0,23.4,3.5,-22.6,5.73,2.31,-25.1,28.1
2012-01-02 01:24:00,0.0,1.9239,0.0009,404.42,0.20,171.9,37.0,138.10,28.25,24.59,36.31,0.04,-272.74,-272.74,-48,554,-928,23.4,3.3,-23.0,23.4,3.4,-22.6,5.73,2.33,-25.1,27.9
2012-01-02 01:25:00,0.0,1.9236,0.0009,404.36,0.21,158.8,26.5,138.10,28.26,24.60,36.31,0.04,-272.74,-272.74,-48,554,-928,23.4,3.3,-23.0,23.4,3.4,-22.7,5.73,2.42,-25.2,27.8
2012-01-02 01:26:00,0.0,1.9235,0.0008,404.54,0.22,147.1,41.8,138.11,28.26,24.60,36.30,0.04,-272.74,-272.74,-48,554,-928,23.4,3.3,-23.0,23.3,3.4,-22.8,5.73,2.44,-25.3,27.7
2012-01-02 01:27:00,0.0,1.9234,0.0009,404.41,0.18,151.2,39.1,138.11,28.26,24.60,36.31,0.04,-272.74,-272.74,-48,555,-928,23.4,3.3,-23.1,23.3,3.4,-22.8,5.73,2.42,-25.4,27.6
2012-01-02 01:28:00,0.0,1.9233,0.0008,404.40,0.21,137.3,31.4,138.12,28.26,24.60,36.31,0.04,-272.74,-272.74,-48,555,-928,23.4,3.3,-23.1,23.3,3.4,-22.8,5.73,2.39,-25.5,27.5
2012-01-02 01:29:00,0.0,1.9235,0.0010,404.42,0.21,119.5,30.7,138.12,28.26,24.60,36.31,0.04,-272.74,-272.74,-48,555,-928,23.3,3.3,-23.2,23.3,3.4,-22.9,5.73,2.37,-25.6,27.5
2012-01-02 01:30:00,0.0,1.9236,0.0008,404.52,0.17,101.7,32.9,138.12,28.25,24.60,36.30,0.04,-272.74,-272.74,-48,555,-928,23.3,3.3,-23.2,23.2,3.4,-23.0,5.73,2.35,-25.6,27.4
2012-01-02 01:31:00,0.0,1.9233,0.0008,404.46,0.20,99.6,33.5,138.13,28.24,24.60,36.30,0.26,-270.82,-272.49,-48,555,-928,23.3,3.3,-23.3,23.2,3.4,-23.0,5.42,2.44,-29.9,27.4
2012-01-02 01:32:00,0.0,1.9233,0.0007,404.44,0.21,99.2,32.5,138.13,28.22,24.60,36.30,0.04,-272.74,-272.74,-48,555,-928,23.3,3.3,-23.2,23.2,3.4,-22.9,5.73,2.34,-25.8,27.3
2012-01-02 01:33:00,0.0,1.9235,0.0008,404.53,0.21,83.1,29.6,138.13,28.21,24.59,36.30,0.04,-272.74,-272.74,-48,555,-928,23.2,3.3,-23.2,23.2,3.4,-22.9,5.73,2.36,-25.8,27.2
2012-01-02 01:34:00,0.0,1.9232,0.0008,404.44,0.22,84.3,29.8,138.13,28.20,24.60,36.31,0.04,-272.74,-272.74,-48,555,-928,23.2,3.3,-23.2,23.1,3.4,-22.9,5.73,2.37,-25.9,27.1
2012-01-02 01:35:00,0.0,1.9231,0.0009,404.55,0.20,74.4,32.8,138.14,28.18,24.59,36.30,0.04,-272.74,-272.74,-48,554,-928,23.2,3.3,-23.2,23.1,3.4,-22.9,5.73,2.39,-26.0,27.1
2012-01-02 01:36:00,0.0,1.9229,0.0008,404.56,0.20,65.7,28.9,138.14,28.17,24.60,36.30,0.04,-272.74,-272.74,-48,554,-928,23.1,3.3,-23.3,23.1,3.4,-23.1,5.73,2.40,-26.0,27.0
2012-01-02 01:37:00,0.0,1.9225,0.0008,404.65,0.23,62.5,34.2,138.14,28.15,24.60,36.29,0.04,-272.74,-272.74,-48,554,-928,23.1,3.3,-23.2,23.0,3.4,-23.1,5.73,2.41,-26.0,27.0
2012-01-02 01:38:00,0.0,1.9225,0.0008,404.45,0.18,62.0,35.7,138.14,28.13,24.59,36.31,0.04,-272.74,-272.74,-48,554,-928,23.1,3.3,-23.3,23.0,3.4,-23.1,5.73,2.41,-26.1,27.0
2012-01-02 01:39:00,0.0,1.9220,0.0009,404.50,0.19,67.5,31.8,138.14,28.12,24.59,36.30,0.04,-272.74,-272.74,-48,554,-928,23.1,3.3,-23.3,23.0,3.4,-23.1,5.73,2.41,-26.1,26.9
2012-01-02 01:40:00,0.0,1.9217,0.0008,404.54,0.19,58.3,37.4,138.14,28.10,24.59,36.30,0.04,-272.74,-272.74,-48,554,-928,23.0,3.3,-23.3,22.9,3.4,-23.1,5.73,2.40,-26.2,26.9
2012-01-02 01:41:00,0.0,1.9219,0.0008,404.39,0.25,55.8,24.5,138.15,28.09,24.59,36.30,0.04,-272.74,-272.74,-48,554,-928,23.0,3.3,-23.3,22.9,3.4,-23.0,5.73,2.40,-26.2,26.8
2012-01-02 01:42:00,0.0,1.9215,0.0008,404.57,0.17,59.1,32.7,138.15,28.07,24.59,36.29,0.04,-272.74,-272.74,-48,554,-928,23.0,3.4,-23.2,22.9,3.5,-23.0,5.73,2.39,-26.2,26.8
2012-01-02 01:43:00,0.0,1.9209,0.0010,404.59,0.17,49.5,31.1,138.15,28.06,24.60,36.29,0.04,-272.74,-272.74,-48,554,-928,22.9,3.4,-23.2,22.9,3.4,-23.0,5.73,2.37,-26.2,26.8
2012-01-02 01:44:00,0.0,1.9208,0.0009,404.50,0.20,56.9,35.3,138.15,28.04,24.59,36.29,0.04,-272.74,-272.74,-48,554,-927,22.9,3.3,-23.4,22.9,3.4,-23.1,5.73,2.32,-26.2,27.0
2012-01-02 01:45:00,0.0,1.9210,0.0010,404.52,0.29,58.7,36.5,138.14,28.04,24.59,36.29,0.04,-272.74,-272.74,-48,553,-927,22.9,3.3,-23.3,22.9,3.4,-23.1,5.73,2.29,-26.2,27.2
2012-01-02 01:46:00,0.0,1.9216,0.0009,404.48,0.19,70.4,31.0,138.13,28.04,24.59,36.29,0.04,-272.74,-272.74,-48,553,-927,23.0,3.3,-23.3,22.9,3.4,-23.1,5.73,2.48,-26.0,27.4
2012-01-02 01:47:00,0.0,1.9224,0.0010,404.30,0.22,78.9,36.7,138.13,28.04,24.59,36.30,0.04,-272.74,-272.74,-48,553,-927,23.0,3.3,-23.3,23.0,3.4,-23.1,5.73,2.35,-25.9,27.6
2012-01-02 01:48:00,0.0,1.9223,0.0009,404.34,0.24,95.1,30.5,138.12,28.05,24.59,36.30,0.04,-272.74,-272.74,-48,553,-927,23.1,3.3,-23.4,23.0,3.4,-23.1,5.73,2.34,-25.8,27.7
2012-01-02 01:49:00,0.0,1.9223,0.0010,404.23,0.20,104.3,33.8,138.12,28.07,24.59,36.30,0.04,-272.74,-272.74,-48,553,-927,23.1,3.3,-23.3,23.1,3.4,-23.1,5.73,2.47,-25.7,27.8
2012-01-02 01:50:00,0.0,1.9223,0.0008,404.31,0.22,122.5,39.5,138.11,28.09,24.59,36.30,0.04,-272.74,-272.74,-47,553,-927,23.1,3.3,-23.4,23.1,3.4,-23.1,5.73,2.27,-25.6,27.9
2012-01-02 01:51:00,0.0,1.9223,0.0009,404.28,0.17,135.7,35.9,138.11,28.11,24.60,36.30,0.04,-272.74,-272.74,-48,553,-927,23.2,3.3,-23.4,23.2,3.4,-23.1,5.73,2.49,-25.5,28.0
2012-01-02 01:52:00,0.0,1.9225,0.0008,404.36,0.21,149.3,32.9,138.10,28.14,24.59,36.30,0.04,-272.74,-272.74,-48,553,-927,23.2,3.3,-23.4,23.2,3.4,-23.1,5.73,2.26,-25.4,28.1
2012-01-02 01:53:00,0.0,1.9227,0.0008,404.31,0.17,151.2,28.4,138.10,28.16,24.60,36.31,0.04,-272.74,-272.74,-48,553,-927,23.3,3.3,-23.4,23.3,3.4,-23.0,5.73,2.49,-25.3,28.2
2012-01-02 01:54:00,0.0,1.9232,0.0009,404.39,0.20,165.3,28.6,138.10,28.19,24.60,36.31,0.04,-272.74,-272.74,-48,553,-927,23.3,3.3,-23.3,23.3,3.4,-23.0,5.73,2.27,-25.2,28.1
2012-01-02 01:55:00,0.0,1.9232,0.0009,404.34,0.22,169.6,33.8,138.10,28.21,24.60,36.31,0.04,-272.74,-272.74,-48,554,-927,23.3,3.3,-23.3,23.3,3.3,-23.0,5.73,2.41,-25.2,27.9
2012-01-02 01:56:00,0.0,1.9237,0.0010,404.48,0.21,153.6,34.3,138.10,28.23,24.60,36.31,0.04,-272.74,-272.74,-48,554,-928,23.3,3.3,-23.4,23.3,3.4,-23.0,5.73,2.46,-25.3,27.7
2012-01-02 01:57:00,0.0,1.9237,0.0009,404.44,0.19,158.6,27.5,138.11,28.24,24.60,36.31,0.04,-272.74,-272.74,-48,553,-928,23.3,3.2,-23.5,23.3,3.3,-23.1,5.73,2.40,-25.4,27.5
2012-01-02 01:58:00,0.0,1.9235,0.0008,404.51,0.21,141.7,28.7,138.11,28.24,24.60,36.30,0.04,-272.74,-272.74,-48,554,-928,23.3,3.2,-23.5,23.3,3.3,-23.1,5.73,2.36,-25.5,27.5
2012-01-02 01:59:00,0.0,1.9231,0.0008,404.48,0.23,134.1,34.6,138.12,28.24,24.60,36.31,0.04,-272.74,-272.74,-48,554,-928,23.3,3.2,-23.5,23.2,3.3,-23.2,5.73,2.34,-25.6,27.4
2012-01-02 02:00:00,0.0,1.9235,0.0010,404.49,0.21,124.5,30.4,138.12,28.24,24.60,36.31,0.04,-272.74,-272.74,-48,554,-928,23.3,3.2,-23.5,23.2,3.3,-23.2,5.73,2.35,-25.6,27.4
2012-01-02 02:01:00,0.0,1.9235,0.0010,404.48,0.19,107.7,29.3,138.12,28.23,24.60,36.31,0.04,-272.74,-272.74,-48,554,-928,23.3,3.2,-23.5,23.2,3.4,-23.1,5.73,2.35,-25.7,27.3
2012-01-02 02:02:00,0.0,1.9233,0.0008,404.52,0.19,96.2,34.3,138.13,28.22,24.60,36.30,0.04,-272.74,-272.74,-48,554,-928,23.2,3.3,-23.4,23.2,3.4,-23.1,5.73,2.37,-25.8,27.2
2012-01-02 02:03:00,0.0,1.9238,0.0010,404.52,0.19,91.0,34.8,138.13,28.21,24.59,36.30,0.04,-272.74,-272.74,-48,554,-928,23.2,3.3,-23.5,23.1,3.3,-23.2,5.73,2.39,-25.9,27.2
2012-01-02 02:04:00,0.0,1.9238,0.0009,404.51,0.22,80.7,31.3,138.13,28.20,24.59,36.31,0.04,-272.74,-272.74,-48,554,-928,23.2,3.3,-23.5,23.0,3.3,-23.2,5.73,2.40,-26.0,27.1
2012-01-02 02:05:00,0.0,1.9236,0.0009,404.65,0.21,76.3,33.5,138.13,28.18,24.59,36.30,0.04,-272.74,-272.74,-48,554,-928,23.1,3.3,-23.4,23.0,3.4,-23.2,5.73,2.41,-26.0,27.1
2012-01-02 02:06:00,0.0,1.9232,0.0009,404.65,0.21,73.3,35.8,138.14,28.16,24.60,36.30,0.04,-272.74,-272.74,-48,554,-928,23.1,3.3,-23.3,23.0,3.4,-23.1,5.73,2.42,-26.1,27.0
2012-01-02 02:07:00,0.0,1.9232,0.0010,404.52,0.19,65.8,35.3,138.14,28.15,24.59,36.31,0.04,-272.74,-272.74,-48,554,-927,23.1,3.3,-23.4,22.9,3.4,-23.2,5.73,2.42,-26.2,26.9
2012-01-02 02:08:00,0.0,1.9226,0.0008,404.55,0.15,63.7,33.8,138.14,28.13,24.59,36.31,0.04,-272.74,-272.74,-48,554,-927,23.0,3.3,-23.4,22.9,3.4,-23.2,5.73,2.41,-26.2,26.9
2012-01-02 02:09:00,0.0,1.9222,0.0009,404.62,0.17,60.9,29.2,138.14,28.11,24.60,36.30,0.04,-272.74,-272.74,-48,553,-927,23.0,3.3,-23.4,22.9,3.4,-23.2,5.73,2.40,-26.2,26.9
2012-01-02 02:10:00,0.0,1.9220,0.0009,404.61,0.21,55.5,31.7,138.15,28.10,24.60,36.29,0.26,-270.85,-272.48,-48,553,-927,22.9,3.3,-23.3,22.9,3.4,-23.2,5.42,2.49,-30.5,26.8
2012-01-02 02:11:00,0.0,1.9219,0.0009,404.63,0.19,53.4,29.8,138.15,28.08,24.59,36.30,0.04,-272.74,-272.74,-48,553,-928,22.9,3.3,-23.3,22.8,3.4,-23.1,5.73,2.38,-26.3,26.8
2012-01-02 02:12:00,0.0,1.9217,0.0009,404.68,0.20,47.9,30.3,138.15,28.06,24.59,36.29,0.04,-272.74,-272.74,-48,553,-928,22.9,3.4,-23.3,22.8,3.4,-23.1,5.73,2.37,-26.4,26.7
2012-01-02 02:13:00,0.0,1.9214,0.0010,404.58,0.18,59.4,31.7,138.15,28.04,24.59,36.29,0.04,-272.73,-272.74,-48,553,-927,22.9,3.4,-23.3,22.8,3.4,-23.1,5.73,2.36,-26.4,26.7
2012-01-02 02:14:00,0.0,1.9208,0.0009,404.56,0.22,50.4,31.0,138.15,28.02,24.59,36.29,0.04,-272.74,-272.74,-48,553,-927,22.8,3.4,-23.3,22.7,3.4,-23.1,5.73,2.34,-26.4,26.7
2012-01-02 02:15:00,0.0,1.9209,0.0009,404.63,0.19,45.9,24.7,138.15,28.01,24.59,36.29,0.04,-272.74,-272.74,-48,553,-927,22.8,3.3,-23.4,22.7,3.4,-23.2,5.73,2.31,-26.4,26.9
2012-01-02 02:16:00,0.0,1.9213,0.0009,404.55,0.19,57.0,33.3,138.14,28.00,24.59,36.29,0.04,-272.74,-272.74,-48,553,-927,22.9,3.3,-23.5,22.8,3.4,-23.3,5.73,2.47,-26.3,27.2
2012-01-02 02:17:00,0.0,1.9224,0.0009,404.57,0.20,60.8,24.4,138.13,28.00,24.59,36.29,0.04,-272.73,-272.74,-48,552,-927,22.9,3.3,-23.5,22.9,3.4,-23.3,5.73,2.40,-26.2,27.4